QPF
0.01 0.02 0.03 0.02 0.01 0.00 0.01 0.01 0.01 0.01 0.01 0.01 0.01 0.01 0.01 0.01 0.00 0.01 0.00 0.01 0.01 0.01 0.01 0.01 0.01 0.01 0.01 0.01 0.01 0.01 0.01 0.01 0.02 0.02 0.02 0.03 0.03 0.06 0.10 0.13 0.10 0.07 0.08
0.01 0.01 0.03 0.02 0.01 0.01 0.01 0.01 0.01 0.01 0.01 0.01 0.01 0.01 0.01 0.00 0.00 0.01 0.01 0.00 0.00 0.01 0.01 0.01 0.01 0.01 0.01 0.01 0.01 0.01 0.01 0.01 0.03 0.04 0.04 0.04 0.07 0.08 0.10 0.09 0.06 0.06 0.07
0.01 0.01 0.02 0.02 0.02 0.01 0.01 0.00 0.00 0.00 0.01 0.01 0.01 0.01 0.01 0.00 0.00 0.00 0.00 0.00 0.01 0.01 0.01 0.01 0.01 0.01 0.01 0.00 0.00 0.00 0.01 0.01 0.03 0.04 0.04 0.02 0.06 0.10 0.09 0.08 0.07 0.08 0.07
0.01 0.01 0.01 0.02 0.02 0.01 0.01 0.00 0.00 0.00 0.00 0.01 0.00 0.00 0.00 0.00 0.00 0.00 0.00 0.00 0.00 0.00 0.00 0.00 0.00 0.00 0.00 0.00 0.00 0.00 0.01 0.02 0.02 0.02 0.01 0.01 0.02 0.07 0.06 0.05 0.04 0.05 0.05
0.01 0.01 0.01 0.01 0.01 0.01 0.01 0.00 0.01 0.00 0.00 0.00 0.00 0.00 0.00 0.00 0.00 0.00 0.00 0.00 0.00 0.00 0.00 0.00 0.00 0.00 0.00 0.00 0.00 0.01 0.01 0.02 0.02 0.01 0.00 0.01 0.01 0.03 0.04 0.03 0.03 0.04 0.03
0.02 0.01 0.01 0.02 0.02 0.02 0.01 0.01 0.01 0.01 0.00 0.00 0.00 0.00 0.00 0.00 0.00 0.00 0.00 0.00 0.00 0.00 0.00 0.00 0.00 0.00 0.00 0.00 0.01 0.01 0.02 0.02 0.01 0.00 0.00 0.00 0.01 0.02 0.02 0.02 0.03 0.04 0.03
0.02 0.02 0.02 0.02 0.02 0.02 0.01 0.01 0.01 0.01 0.01 0.00 0.00 0.00 0.00 0.00 0.00 0.00 0.00 0.00 0.00 0.00 0.00 0.00 0.00 0.00 0.00 0.00 0.01 0.01 0.03 0.03 0.01 0.00 0.00 0.00 0.01 0.02 0.02 0.02 0.02 0.03 0.02
0.02 0.02 0.02 0.03 0.03 0.03 0.02 0.01 0.01 0.01 0.01 0.01 0.01 0.00 0.01 0.01 0.01 0.01 0.01 0.01 0.01 0.01 0.00 0.00 0.00 0.00 0.00 0.00 0.00 0.01 0.02 0.03 0.01 0.01 0.00 0.00 0.01 0.02 0.02 0.01 0.02 0.02 0.02
0.06 0.03 0.03 0.05 0.04 0.04 0.04 0.03 0.02 0.01 0.01 0.01 0.01 0.01 0.01 0.01 0.01 0.02 0.02 0.02 0.01 0.01 0.01 0.01 0.00 0.00 0.00 0.00 0.00 0.00 0.01 0.03 0.02 0.01 0.01 0.01 0.02 0.02 0.02 0.01 0.02 0.02 0.01
0.08 0.06 0.05 0.05 0.06 0.06 0.06 0.05 0.04 0.03 0.02 0.02 0.02 0.02 0.02 0.01 0.02 0.03 0.03 0.02 0.03 0.02 0.02 0.02 0.01 0.01 0.01 0.01 0.01 0.01 0.01 0.02 0.02 0.01 0.01 0.01 0.04 0.04 0.03 0.02 0.02 0.02 0.02
0.09 0.07 0.06 0.05 0.07 0.06 0.06 0.06 0.06 0.06 0.05 0.05 0.04 0.05 0.04 0.03 0.03 0.04 0.04 0.04 0.04 0.04 0.03 0.03 0.02 0.02 0.02 0.01 0.01 0.01 0.01 0.02 0.02 0.02 0.01 0.02 0.04 0.05 0.04 0.03 0.02 0.02 0.02
0.08 0.07 0.06 0.08 0.09 0.08 0.07 0.08 0.08 0.08 0.08 0.08 0.07 0.07 0.05 0.02 0.03 0.05 0.06 0.09 0.09 0.08 0.07 0.07 0.06 0.04 0.03 0.02 0.02 0.02 0.01 0.02 0.02 0.01 0.01 0.02 0.05 0.06 0.06 0.04 0.03 0.02 0.01
0.10 0.08 0.08 0.14 0.15 0.12 0.10 0.10 0.08 0.07 0.07 0.06 0.07 0.07 0.07 0.07 0.08 0.08 0.08 0.10 0.09 0.09 0.09 0.08 0.07 0.06 0.04 0.03 0.02 0.02 0.03 0.02 0.01 0.01 0.01 0.03 0.05 0.06 0.08 0.07 0.04 0.03 0.02
0.17 0.17 0.18 0.19 0.20 0.18 0.13 0.12 0.10 0.09 0.09 0.09 0.10 0.11 0.10 0.11 0.10 0.08 0.07 0.08 0.08 0.08 0.08 0.07 0.07 0.06 0.05 0.05 0.04 0.03 0.04 0.04 0.03 0.02 0.02 0.03 0.04 0.06 0.08 0.09 0.08 0.06 0.04
0.23 0.19 0.21 0.22 0.18 0.14 0.12 0.12 0.13 0.11 0.10 0.11 0.10 0.10 0.08 0.09 0.09 0.08 0.07 0.07 0.06 0.05 0.06 0.06 0.06 0.06 0.06 0.05 0.05 0.05 0.05 0.05 0.04 0.03 0.03 0.05 0.06 0.07 0.10 0.11 0.11 0.10 0.07
0.25 0.25 0.22 0.23 0.19 0.17 0.17 0.15 0.14 0.13 0.13 0.12 0.10 0.09 0.08 0.07 0.07 0.08 0.07 0.08 0.07 0.06 0.04 0.03 0.02 0.03 0.04 0.04 0.04 0.04 0.05 0.05 0.04 0.03 0.03 0.04 0.07 0.09 0.10 0.10 0.11 0.12 0.11
0.32 0.30 0.30 0.30 0.20 0.17 0.16 0.17 0.13 0.13 0.13 0.09 0.07 0.08 0.07 0.05 0.06 0.07 0.08 0.07 0.06 0.07 0.06 0.04 0.03 0.03 0.04 0.05 0.05 0.04 0.05 0.06 0.04 0.02 0.02 0.01 0.03 0.06 0.08 0.09 0.10 0.13 0.13
0.31 0.33 0.25 0.25 0.20 0.19 0.17 0.13 0.10 0.10 0.08 0.06 0.07 0.06 0.06 0.06 0.06 0.06 0.05 0.04 0.05 0.05 0.05 0.06 0.05 0.05 0.06 0.06 0.06 0.05 0.05 0.05 0.04 0.03 0.02 0.01 0.01 0.02 0.06 0.11 0.13 0.14 0.14
0.26 0.22 0.18 0.21 0.18 0.15 0.13 0.09 0.07 0.07 0.05 0.05 0.05 0.04 0.04 0.04 0.05 0.05 0.05 0.04 0.04 0.04 0.04 0.04 0.05 0.05 0.05 0.05 0.05 0.04 0.04 0.03 0.03 0.03 0.02 0.02 0.02 0.02 0.03 0.07 0.14 0.15 0.16
0.25 0.18 0.14 0.16 0.13 0.09 0.07 0.06 0.04 0.03 0.03 0.03 0.03 0.03 0.03 0.03 0.03 0.04 0.04 0.03 0.02 0.02 0.03 0.03 0.05 0.05 0.03 0.03 0.02 0.02 0.03 0.03 0.03 0.03 0.03 0.03 0.03 0.04 0.05 0.05 0.07 0.08 0.14
0.27 0.22 0.16 0.12 0.08 0.04 0.03 0.02 0.03 0.02 0.01 0.01 0.02 0.02 0.02 0.01 0.01 0.02 0.02 0.02 0.01 0.01 0.01 0.02 0.02 0.03 0.02 0.02 0.02 0.02 0.02 0.02 0.02 0.02 0.03 0.02 0.03 0.04 0.04 0.04 0.04 0.05 0.06
0.22 0.19 0.13 0.08 0.05 0.03 0.01 0.01 0.01 0.01 0.01 0.00 0.00 0.00 0.01 0.01 0.01 0.01 0.01 0.01 0.01 0.01 0.01 0.01 0.01 0.01 0.01 0.01 0.01 0.01 0.01 0.01 0.01 0.01 0.02 0.02 0.02 0.03 0.03 0.04 0.05 0.06 0.07
0.21 0.14 0.08 0.04 0.03 0.02 0.01 0.00 0.00 0.00 0.00 0.00 0.00 0.00 0.00 0.00 0.00 0.00 0.00 0.00 0.00 0.00 0.00 0.00 0.00 0.00 0.00 0.00 0.00 0.01 0.00 0.00 0.00 0.01 0.01 0.01 0.01 0.02 0.03 0.04 0.05 0.06 0.07
0.25 0.16 0.06 0.03 0.02 0.01 0.01 0.00 0.00 0.00 0.00 0.00 0.00 0.00 0.00 0.00 0.00 0.00 0.00 0.00 0.00 0.00 0.00 0.01 0.01 0.00 0.00 0.01 0.01 0.00 0.00 0.00 0.00 0.00 0.00 0.01 0.01 0.01 0.02 0.04 0.05 0.04 0.05
0.12 0.11 0.04 0.02 0.02 0.01 0.01 0.01 0.00 0.00 0.00 0.00 0.00 0.00 0.00 0.00 0.00 0.00 0.00 0.00 0.00 0.00 0.00 0.00 0.00 0.00 0.00 0.00 0.00 0.00 0.00 0.00 0.00 0.00 0.00 0.00 0.00 0.00 0.01 0.02 0.04 0.06 0.06
0.03 0.03 0.02 0.02 0.02 0.01 0.00 0.00 0.00 0.00 0.00 0.00 0.00 0.00 0.00 0.00 0.00 0.00 0.00 0.00 0.00 0.00 0.00 0.00 0.00 0.00 0.00 0.00 0.00 0.00 0.00 0.00 0.00 0.00 0.00 0.00 0.00 0.00 0.00 0.00 0.01 0.02 0.05
MSLP
1012.79 1012.54 1012.44 1012.51 1012.71 1012.97 1013.25 1013.49 1013.68 1013.80 1013.88 1013.96 1014.06 1014.21 1014.43 1014.70 1014.99 1015.27 1015.51 1015.69 1015.79 1015.84 1015.85 1015.84 1015.84 1015.87 1015.93 1016.02 1016.11 1016.20 1016.29 1016.36 1016.42 1016.48 1016.55 1016.64 1016.75 1016.87 1017.01 1017.16 1017.32 1017.49 1017.66
1012.56 1012.40 1012.42 1012.58 1012.86 1013.18 1013.49 1013.75 1013.94 1014.06 1014.15 1014.23 1014.35 1014.53 1014.78 1015.06 1015.35 1015.63 1015.85 1016.00 1016.09 1016.13 1016.15 1016.15 1016.17 1016.21 1016.27 1016.34 1016.40 1016.46 1016.50 1016.54 1016.59 1016.66 1016.75 1016.86 1017.00 1017.16 1017.32 1017.48 1017.65 1017.82 1018.00
1012.21 1012.16 1012.29 1012.56 1012.93 1013.33 1013.70 1014.01 1014.22 1014.37 1014.48 1014.59 1014.73 1014.93 1015.18 1015.45 1015.72 1015.96 1016.14 1016.26 1016.33 1016.36 1016.38 1016.41 1016.44 1016.50 1016.55 1016.61 1016.65 1016.68 1016.70 1016.73 1016.77 1016.85 1016.96 1017.11 1017.28 1017.45 1017.63 1017.81 1017.97 1018.14 1018.32
1011.82 1011.88 1012.11 1012.50 1012.97 1013.45 1013.89 1014.25 1014.51 1014.70 1014.84 1014.98 1015.14 1015.34 1015.58 1015.82 1016.05 1016.23 1016.37 1016.45 1016.50 1016.52 1016.56 1016.60 1016.66 1016.74 1016.80 1016.85 1016.88 1016.89 1016.90 1016.92 1016.98 1017.07 1017.21 1017.39 1017.58 1017.77 1017.96 1018.12 1018.28 1018.44 1018.62
1011.46 1011.63 1011.96 1012.45 1013.00 1013.56 1014.06 1014.47 1014.77 1014.99 1015.17 1015.33 1015.51 1015.70 1015.92 1016.13 1016.31 1016.45 1016.54 1016.59 1016.62 1016.65 1016.70 1016.77 1016.86 1016.96 1017.04 1017.09 1017.11 1017.12 1017.12 1017.15 1017.22 1017.34 1017.50 1017.70 1017.90 1018.10 1018.28 1018.43 1018.57 1018.72 1018.89
1011.23 1011.48 1011.90 1012.45 1013.07 1013.67 1014.21 1014.64 1014.97 1015.22 1015.42 1015.59 1015.78 1015.98 1016.17 1016.35 1016.50 1016.60 1016.66 1016.70 1016.73 1016.77 1016.85 1016.95 1017.07 1017.18 1017.27 1017.33 1017.35 1017.35 1017.35 1017.39 1017.48 1017.62 1017.80 1018.02 1018.23 1018.42 1018.58 1018.71 1018.83 1018.96 1019.12
1011.18 1011.49 1011.96 1012.54 1013.18 1013.79 1014.33 1014.76 1015.10 1015.35 1015.56 1015.75 1015.94 1016.14 1016.33 1016.50 1016.63 1016.72 1016.77 1016.80 1016.84 1016.91 1017.01 1017.14 1017.28 1017.41 1017.51 1017.56 1017.57 1017.57 1017.58 1017.63 1017.73 1017.89 1018.09 1018.31 1018.52 1018.71 1018.85 1018.96 1019.05 1019.16 1019.31
1011.32 1011.66 1012.15 1012.73 1013.35 1013.93 1014.44 1014.84 1015.15 1015.39 1015.60 1015.80 1016.00 1016.21 1016.42 1016.59 1016.72 1016.81 1016.87 1016.92 1016.98 1017.07 1017.20 1017.35 1017.50 1017.64 1017.73 1017.77 1017.78 1017.77 1017.77 1017.82 1017.94 1018.11 1018.32 1018.55 1018.76 1018.94 1019.06 1019.15 1019.23 1019.32 1019.46
1011.63 1011.98 1012.45 1013.00 1013.57 1014.09 1014.54 1014.89 1015.16 1015.38 1015.58 1015.79 1016.01 1016.25 1016.47 1016.67 1016.82 1016.92 1017.00 1017.06 1017.14 1017.25 1017.39 1017.55 1017.70 1017.83 1017.91 1017.94 1017.93 1017.90 1017.90 1017.95 1018.07 1018.25 1018.48 1018.71 1018.92 1019.09 1019.21 1019.28 1019.35 1019.44 1019.58
1012.04 1012.38 1012.83 1013.33 1013.82 1014.27 1014.64 1014.94 1015.17 1015.36 1015.56 1015.79 1016.03 1016.29 1016.54 1016.76 1016.94 1017.06 1017.15 1017.22 1017.31 1017.42 1017.56 1017.72 1017.86 1017.97 1018.03 1018.04 1018.01 1017.97 1017.96 1018.01 1018.13 1018.31 1018.54 1018.78 1019.00 1019.17 1019.29 1019.37 1019.44 1019.52 1019.66
1012.49 1012.82 1013.23 1013.67 1014.10 1014.47 1014.77 1015.01 1015.20 1015.39 1015.59 1015.83 1016.10 1016.39 1016.66 1016.90 1017.09 1017.22 1017.31 1017.39 1017.47 1017.57 1017.70 1017.84 1017.96 1018.05 1018.09 1018.08 1018.04 1017.99 1017.97 1018.01 1018.12 1018.30 1018.53 1018.78 1019.00 1019.19 1019.32 1019.41 1019.49 1019.59 1019.73
1012.90 1013.22 1013.60 1014.00 1014.36 1014.67 1014.92 1015.11 1015.29 1015.47 1015.68 1015.94 1016.24 1016.55 1016.84 1017.08 1017.27 1017.40 1017.48 1017.54 1017.61 1017.69 1017.80 1017.91 1018.02 1018.09 1018.12 1018.10 1018.05 1017.99 1017.97 1018.00 1018.10 1018.27 1018.49 1018.73 1018.96 1019.16 1019.31 1019.42 1019.52 1019.63 1019.77
1013.22 1013.55 1013.90 1014.26 1014.58 1014.85 1015.06 1015.24 1015.41 1015.61 1015.84 1016.12 1016.44 1016.75 1017.05 1017.29 1017.47 1017.58 1017.64 1017.68 1017.72 1017.79 1017.87 1017.97 1018.06 1018.13 1018.16 1018.14 1018.09 1018.03 1018.00 1018.02 1018.10 1018.25 1018.45 1018.68 1018.90 1019.10 1019.27 1019.40 1019.51 1019.64 1019.79
1013.42 1013.76 1014.10 1014.43 1014.73 1014.98 1015.18 1015.37 1015.56 1015.78 1016.04 1016.34 1016.66 1016.98 1017.26 1017.49 1017.64 1017.73 1017.78 1017.80 1017.83 1017.87 1017.95 1018.04 1018.14 1018.21 1018.25 1018.24 1018.20 1018.15 1018.12 1018.12 1018.17 1018.28 1018.45 1018.64 1018.84 1019.03 1019.20 1019.34 1019.47 1019.60 1019.76
1013.51 1013.85 1014.18 1014.50 1014.79 1015.04 1015.26 1015.48 1015.70 1015.95 1016.24 1016.56 1016.88 1017.19 1017.45 1017.65 1017.78 1017.86 1017.89 1017.91 1017.93 1017.98 1018.06 1018.17 1018.28 1018.37 1018.43 1018.44 1018.42 1018.38 1018.34 1018.31 1018.33 1018.39 1018.49 1018.63 1018.79 1018.94 1019.09 1019.23 1019.36 1019.50 1019.66
1013.51 1013.83 1014.16 1014.47 1014.76 1015.03 1015.28 1015.54 1015.81 1016.10 1016.42 1016.74 1017.06 1017.34 1017.58 1017.76 1017.87 1017.94 1017.98 1018.01 1018.06 1018.13 1018.24 1018.37 1018.50 1018.62 1018.70 1018.74 1018.74 1018.71 1018.65 1018.60 1018.56 1018.56 1018.59 1018.65 1018.73 1018.83 1018.94 1019.05 1019.17 1019.31 1019.47
1013.45 1013.76 1014.06 1014.36 1014.66 1014.95 1015.25 1015.56 1015.89 1016.22 1016.56 1016.88 1017.18 1017.44 1017.65 1017.81 1017.92 1018.00 1018.06 1018.13 1018.22 1018.33 1018.47 1018.63 1018.79 1018.94 1019.05 1019.11 1019.12 1019.09 1019.02 1018.93 1018.84 1018.77 1018.71 1018.67 1018.67 1018.69 1018.74 1018.81 1018.90 1019.02 1019.17
1013.40 1013.66 1013.94 1014.22 1014.53 1014.86 1015.21 1015.58 1015.95 1016.32 1016.68 1016.99 1017.27 1017.49 1017.67 1017.82 1017.93 1018.03 1018.14 1018.26 1018.40 1018.56 1018.75 1018.94 1019.12 1019.28 1019.40 1019.48 1019.50 1019.47 1019.39 1019.27 1019.12 1018.97 1018.82 1018.69 1018.59 1018.52 1018.49 1018.50 1018.56 1018.65 1018.78
1013.38 1013.60 1013.83 1014.10 1014.41 1014.78 1015.18 1015.61 1016.04 1016.44 1016.80 1017.10 1017.34 1017.53 1017.68 1017.81 1017.93 1018.06 1018.22 1018.39 1018.59 1018.80 1019.02 1019.24 1019.43 1019.60 1019.72 1019.80 1019.82 1019.79 1019.69 1019.55 1019.37 1019.15 1018.92 1018.70 1018.50 1018.34 1018.23 1018.17 1018.18 1018.24 1018.35
1013.43 1013.59 1013.78 1014.03 1014.36 1014.76 1015.22 1015.70 1016.17 1016.60 1016.96 1017.24 1017.44 1017.58 1017.70 1017.81 1017.94 1018.10 1018.30 1018.52 1018.77 1019.03 1019.27 1019.49 1019.68 1019.83 1019.95 1020.02 1020.04 1020.01 1019.92 1019.77 1019.56 1019.30 1019.01 1018.71 1018.43 1018.18 1017.99 1017.86 1017.81 1017.83 1017.91
1013.55 1013.65 1013.81 1014.05 1014.39 1014.83 1015.33 1015.87 1016.38 1016.82 1017.17 1017.41 1017.57 1017.67 1017.74 1017.83 1017.96 1018.14 1018.37 1018.64 1018.93 1019.20 1019.45 1019.67 1019.84 1019.97 1020.07 1020.13 1020.15 1020.13 1020.05 1019.91 1019.70 1019.43 1019.11 1018.76 1018.41 1018.09 1017.82 1017.63 1017.52 1017.50 1017.54
1013.74 1013.80 1013.93 1014.16 1014.52 1014.99 1015.54 1016.11 1016.64 1017.10 1017.43 1017.64 1017.75 1017.79 1017.83 1017.89 1018.01 1018.20 1018.45 1018.74 1019.04 1019.32 1019.57 1019.76 1019.90 1020.01 1020.08 1020.14 1020.17 1020.17 1020.12 1020.01 1019.83 1019.57 1019.24 1018.87 1018.47 1018.10 1017.78 1017.52 1017.36 1017.27 1017.27
1013.97 1014.01 1014.12 1014.35 1014.72 1015.22 1015.79 1016.39 1016.95 1017.40 1017.71 1017.88 1017.95 1017.95 1017.94 1017.98 1018.08 1018.27 1018.53 1018.82 1019.12 1019.40 1019.62 1019.78 1019.90 1019.97 1020.03 1020.09 1020.14 1020.17 1020.17 1020.11 1019.97 1019.74 1019.43 1019.06 1018.65 1018.24 1017.87 1017.56 1017.34 1017.19 1017.13
1014.23 1014.25 1014.36 1014.59 1014.97 1015.48 1016.07 1016.68 1017.24 1017.68 1017.97 1018.12 1018.15 1018.12 1018.08 1018.09 1018.18 1018.35 1018.60 1018.89 1019.18 1019.44 1019.63 1019.77 1019.86 1019.91 1019.96 1020.02 1020.10 1020.17 1020.22 1020.22 1020.14 1019.96 1019.68 1019.32 1018.91 1018.49 1018.08 1017.73 1017.45 1017.25 1017.12
1014.47 1014.50 1014.60 1014.83 1015.21 1015.72 1016.31 1016.92 1017.47 1017.90 1018.18 1018.31 1018.32 1018.27 1018.22 1018.21 1018.29 1018.45 1018.69 1018.97 1019.24 1019.47 1019.64 1019.74 1019.81 1019.85 1019.90 1019.97 1020.08 1020.19 1020.29 1020.35 1020.32 1020.19 1019.95 1019.62 1019.22 1018.79 1018.37 1017.98 1017.66 1017.40 1017.21
1014.67 1014.72 1014.82 1015.05 1015.42 1015.91 1016.49 1017.08 1017.61 1018.03 1018.31 1018.43 1018.44 1018.39 1018.34 1018.34 1018.41 1018.57 1018.79 1019.05 1019.29 1019.50 1019.64 1019.73 1019.78 1019.81 1019.87 1019.95 1020.08 1020.23 1020.37 1020.46 1020.48 1020.39 1020.19 1019.89 1019.51 1019.08 1018.65 1018.25 1017.89 1017.59 1017.34
Thickness
5789 5789 5787 5785 5782 5781 5779 5777 5776 5774 5773 5772 5771 5770 5769 5767 5766 5764 5763 5762 5761 5761 5760 5759 5759 5758 5758 5757 5756 5756 5755 5754 5754 5753 5751 5750 5748 5747 5746 5745 5743 5742 5740
5794 5790 5787 5784 5781 5779 5777 5775 5773 5772 5770 5769 5768 5767 5766 5765 5764 5763 5761 5760 5759 5759 5758 5757 5757 5756 5756 5755 5754 5754 5753 5752 5752 5751 5750 5748 5747 5745 5744 5743 5742 5740 5739
5794 5789 5786 5783 5780 5777 5775 5773 5771 5770 5768 5767 5765 5764 5763 5763 5762 5761 5760 5758 5757 5757 5756 5755 5754 5754 5753 5752 5752 5751 5750 5750 5749 5748 5747 5746 5745 5744 5743 5742 5740 5739 5738
5791 5787 5784 5781 5778 5776 5773 5771 5769 5767 5766 5764 5763 5762 5761 5760 5759 5758 5757 5756 5755 5754 5753 5753 5752 5751 5751 5750 5749 5749 5748 5748 5747 5746 5745 5745 5744 5743 5742 5741 5739 5738 5737
5787 5784 5781 5778 5776 5773 5771 5769 5767 5765 5763 5761 5760 5759 5758 5757 5756 5755 5754 5753 5753 5752 5751 5750 5749 5749 5748 5748 5747 5747 5746 5746 5745 5744 5743 5743 5743 5741 5740 5739 5738 5737 5735
5783 5780 5778 5776 5773 5770 5768 5766 5764 5762 5760 5758 5757 5755 5755 5754 5753 5752 5752 5751 5750 5749 5748 5747 5746 5746 5745 5745 5745 5745 5745 5744 5743 5742 5741 5741 5741 5740 5739 5738 5737 5736 5734
5780 5778 5776 5773 5770 5767 5765 5763 5761 5759 5757 5755 5753 5752 5751 5750 5750 5749 5748 5748 5747 5746 5745 5744 5744 5743 5742 5742 5742 5743 5743 5743 5742 5740 5739 5739 5738 5738 5738 5737 5736 5734 5733
5777 5775 5773 5770 5767 5765 5762 5760 5758 5756 5755 5753 5751 5749 5748 5747 5746 5746 5745 5744 5743 5742 5742 5741 5741 5740 5739 5739 5739 5740 5741 5741 5739 5738 5738 5737 5736 5736 5735 5735 5734 5733 5732
5772 5770 5769 5767 5765 5762 5759 5757 5755 5753 5752 5750 5748 5747 5746 5744 5743 5742 5742 5741 5740 5739 5738 5738 5738 5737 5737 5737 5737 5737 5738 5738 5737 5736 5736 5735 5734 5734 5733 5733 5732 5731 5730
5766 5766 5765 5763 5760 5758 5756 5753 5752 5750 5749 5748 5746 5744 5742 5741 5740 5739 5738 5737 5736 5735 5735 5734 5735 5734 5734 5734 5734 5735 5735 5735 5735 5734 5734 5733 5733 5732 5731 5731 5730 5730 5729
5761 5761 5761 5759 5757 5754 5752 5751 5749 5748 5746 5745 5743 5741 5739 5738 5737 5736 5734 5734 5733 5732 5731 5731 5731 5731 5731 5732 5732 5732 5732 5732 5732 5732 5732 5731 5731 5730 5729 5729 5728 5728 5727
5755 5755 5755 5754 5752 5750 5749 5747 5745 5744 5743 5741 5739 5737 5736 5734 5733 5732 5731 5730 5729 5729 5729 5728 5728 5728 5728 5729 5729 5730 5729 5729 5729 5730 5730 5730 5729 5728 5728 5727 5726 5726 5725
5751 5752 5751 5751 5749 5747 5745 5743 5741 5740 5739 5738 5736 5733 5732 5731 5729 5729 5728 5727 5726 5726 5726 5725 5725 5725 5725 5725 5726 5726 5726 5726 5727 5727 5728 5728 5728 5727 5726 5725 5725 5724 5724
5747 5747 5747 5746 5745 5742 5742 5740 5738 5737 5735 5734 5732 5730 5729 5728 5726 5725 5724 5723 5723 5723 5723 5723 5722 5722 5722 5722 5723 5723 5723 5724 5724 5724 5725 5726 5726 5726 5725 5724 5723 5722 5722
5743 5744 5743 5742 5741 5740 5739 5737 5735 5733 5732 5731 5729 5727 5726 5725 5723 5722 5721 5721 5720 5720 5719 5719 5719 5718 5719 5719 5719 5720 5721 5721 5721 5722 5723 5723 5724 5724 5724 5723 5722 5721 5720
5739 5740 5741 5740 5739 5738 5735 5733 5731 5730 5729 5728 5726 5724 5724 5723 5721 5720 5719 5717 5717 5716 5716 5716 5715 5715 5715 5715 5716 5716 5717 5718 5718 5719 5720 5721 5722 5722 5722 5722 5721 5720 5719
5735 5737 5737 5737 5737 5734 5732 5730 5728 5727 5726 5724 5722 5721 5721 5720 5719 5718 5716 5715 5714 5714 5714 5713 5712 5712 5712 5712 5712 5713 5714 5714 5715 5716 5717 5718 5719 5720 5720 5720 5719 5719 5718
5731 5731 5733 5735 5733 5731 5729 5726 5725 5724 5723 5721 5719 5718 5718 5717 5716 5715 5713 5712 5711 5711 5710 5709 5708 5708 5707 5707 5707 5709 5710 5710 5711 5712 5714 5715 5716 5717 5718 5718 5717 5717 5716
5728 5728 5729 5730 5729 5727 5726 5723 5721 5720 5719 5717 5716 5715 5715 5714 5713 5711 5710 5709 5708 5707 5706 5706 5704 5703 5703 5703 5704 5705 5705 5706 5708 5709 5710 5711 5712 5713 5714 5715 5715 5714 5714
5725 5725 5725 5726 5725 5724 5723 5720 5718 5716 5715 5714 5713 5713 5711 5710 5709 5708 5706 5705 5704 5703 5701 5700 5699 5699 5698 5698 5699 5700 5700 5702 5703 5705 5706 5707 5708 5709 5710 5711 5711 5711 5711
5723 5723 5722 5721 5721 5721 5719 5716 5713 5711 5711 5711 5710 5710 5709 5708 5706 5705 5703 5702 5701 5699 5697 5697 5696 5694 5693 5693 5692 5692 5694 5697 5698 5699 5701 5702 5703 5704 5705 5706 5707 5707 5708
5721 5721 5720 5719 5718 5718 5718 5715 5713 5710 5709 5708 5707 5707 5706 5705 5704 5703 5700 5699 5697 5695 5694 5693 5692 5689 5688 5687 5686 5683 5682 5685 5690 5693 5694 5695 5697 5698 5699 5701 5702 5703 5704
5720 5720 5719 5717 5717 5717 5716 5714 5711 5709 5707 5705 5704 5703 5703 5702 5701 5700 5698 5696 5694 5692 5690 5689 5687 5685 5682 5681 5681 5679 5675 5673 5677 5683 5685 5687 5689 5691 5693 5695 5697 5699 5700
5719 5719 5718 5717 5716 5716 5715 5713 5710 5707 5703 5702 5701 5701 5701 5700 5699 5697 5695 5693 5691 5689 5687 5686 5684 5682 5679 5677 5675 5674 5673 5671 5669 5671 5676 5678 5681 5683 5685 5688 5690 5692 5695
5719 5718 5717 5716 5715 5714 5713 5712 5709 5706 5703 5701 5699 5698 5697 5697 5696 5695 5693 5691 5688 5686 5684 5682 5680 5678 5676 5673 5671 5669 5668 5666 5664 5663 5664 5667 5671 5675 5677 5679 5682 5685 5688
5718 5716 5715 5714 5713 5712 5712 5710 5708 5705 5701 5699 5697 5696 5694 5694 5693 5692 5690 5688 5686 5683 5681 5679 5676 5674 5672 5670 5667 5665 5663 5661 5659 5657 5656 5657 5659 5665 5669 5672 5674 5677 5679